Location: Bogotá
(4.6533°N, 74.0837°W)
Time: 11:41:32
(UTC+00:00)

ISS - Pass Details

Date: 09 March 2026
Orbit: 416 x 427 km, 51.6° (Epoch: 5 March)

Event Time Altitude Azimuth Distance (km) Brightness Sun altitude
Exits shadow 09:54:15 11° 353° (N) 1,444 -1.1 -18.4°
Maximum altitude 09:57:04 28° 54° (NE) 806 -1.8 -17.7°
Drops below altitude 10° 09:59:59 10° 115° (ESE) 1,480 0.1 -17.0°
Sets 10:02:15 0° 127° (SE) 2,344 1.0 -16.4°
